ABQ702 OPIS-OPSD

Flight info

Callsign ABQ702
Flight time 0h 45m
Altitude 31000
Route BOBAM DCT KAPMI J154 BUNGI J186 DELDA DCT BIREB DCT SANAM
Aircraft A320/M-SDE3FGHIRWY/LB1

Departure

Time 2026-04-20 22:04
Airport Islamabad International Airport (OPIS)

Arrival

Time 2026-04-20 22:50
Airport Skardu International Airport (OPSD)
Time Latitude Longitude Altitude Speed Heading
2026-04-20 21:40 33.55666 72.83181 1770 ft 0 kts 100°
2026-04-20 21:50 33.55670 72.83154 1770 ft 4 kts 102°
2026-04-20 21:50 33.55677 72.83123 1771 ft 4 kts 110°
2026-04-20 21:51 33.55688 72.83095 1771 ft 4 kts 132°
2026-04-20 21:51 33.55705 72.83082 1770 ft 2 kts 190°
2026-04-20 21:51 33.55706 72.83082 1770 ft 0 kts 190°
2026-04-20 21:55 33.55664 72.83071 1772 ft 12 kts 203°
2026-04-20 21:55 33.55613 72.82999 1772 ft 12 kts 237°
2026-04-20 21:55 33.55593 72.82965 1770 ft 12 kts 235°
2026-04-20 21:55 33.55544 72.82880 1771 ft 13 kts 235°
2026-04-20 21:56 33.55492 72.82789 1772 ft 14 kts 235°
2026-04-20 21:56 33.55433 72.82688 1773 ft 16 kts 235°
2026-04-20 21:56 33.55345 72.82619 1772 ft 14 kts 190°
2026-04-20 21:56 33.55254 72.82599 1769 ft 13 kts 191°
2026-04-20 21:57 33.55186 72.82635 1768 ft 11 kts 107°
2026-04-20 21:57 33.55173 72.82723 1768 ft 10 kts 100°
2026-04-20 21:57 33.55162 72.82797 1769 ft 8 kts 100°
2026-04-20 21:57 33.55152 72.82861 1770 ft 7 kts 100°
2026-04-20 21:58 33.55144 72.82915 1770 ft 6 kts 100°
2026-04-20 21:58 33.55132 72.82991 1768 ft 13 kts 101°
2026-04-20 21:58 33.55112 72.83120 1768 ft 16 kts 100°
2026-04-20 21:58 33.55093 72.83247 1771 ft 14 kts 101°
2026-04-20 21:59 33.55076 72.83359 1768 ft 13 kts 101°
2026-04-20 21:59 33.55060 72.83456 1769 ft 11 kts 99°
2026-04-20 21:59 33.55048 72.83542 1770 ft 10 kts 99°
2026-04-20 21:59 33.55037 72.83615 1771 ft 8 kts 101°
2026-04-20 22:00 33.55025 72.83687 1769 ft 12 kts 100°
2026-04-20 22:00 33.55007 72.83815 1770 ft 19 kts 99°
2026-04-20 22:00 33.54977 72.84005 1770 ft 27 kts 100°
2026-04-20 22:00 33.54941 72.84239 1768 ft 29 kts 100°
2026-04-20 22:01 33.54906 72.84465 1769 ft 15 kts 101°
2026-04-20 22:01 33.54884 72.84541 1771 ft 9 kts 135°
2026-04-20 22:01 33.54826 72.84544 1768 ft 9 kts 194°
2026-04-20 22:01 33.54756 72.84526 1766 ft 12 kts 191°
2026-04-20 22:02 33.54676 72.84508 1766 ft 11 kts 191°
2026-04-20 22:02 33.54609 72.84492 1765 ft 9 kts 191°
2026-04-20 22:02 33.54548 72.84478 1764 ft 9 kts 191°
2026-04-20 22:02 33.54515 72.84434 1763 ft 7 kts 269°
2026-04-20 22:03 33.54518 72.84412 1761 ft 0 kts 281°
2026-04-20 22:03 33.54527 72.84354 1760 ft 29 kts 280°
2026-04-20 22:04 33.54614 72.83804 1762 ft 102 kts 281°
2026-04-20 22:04 33.54782 72.82732 1753 ft 158 kts 281°
2026-04-20 22:04 33.55000 72.81346 2155 ft 173 kts 280°
2026-04-20 22:04 33.55229 72.79904 2818 ft 177 kts 283°
2026-04-20 22:05 33.55408 72.78446 3528 ft 179 kts 281°
2026-04-20 22:05 33.55585 72.76878 3809 ft 201 kts 281°
2026-04-20 22:05 33.55793 72.75129 4059 ft 223 kts 281°
2026-04-20 22:05 33.55752 72.73169 4317 ft 253 kts 255°
2026-04-20 22:06 33.54828 72.71275 4749 ft 277 kts 225°
2026-04-20 22:06 33.53168 72.70060 5478 ft 285 kts 197°
2026-04-20 22:06 33.51222 72.69861 6297 ft 288 kts 171°
2026-04-20 22:06 33.49356 72.70717 7110 ft 291 kts 145°
2026-04-20 22:07 33.47969 72.72476 7889 ft 295 kts 119°
2026-04-20 22:07 33.47337 72.74808 8679 ft 298 kts 93°
2026-04-20 22:07 33.47427 72.77298 9491 ft 301 kts 78°
2026-04-20 22:07 33.47949 72.79739 10206 ft 307 kts 73°
2026-04-20 22:08 33.48543 72.82296 10471 ft 331 kts 73°
2026-04-20 22:08 33.49178 72.85017 10914 ft 344 kts 73°
2026-04-20 22:08 33.49825 72.87804 11599 ft 349 kts 73°
2026-04-20 22:08 33.50480 72.90625 12331 ft 353 kts 72°
2026-04-20 22:09 33.51141 72.93478 13066 ft 357 kts 72°
2026-04-20 22:09 33.51807 72.96359 13796 ft 361 kts 73°
2026-04-20 22:09 33.52474 72.99269 14474 ft 364 kts 73°
2026-04-20 22:09 33.53147 73.02208 15136 ft 367 kts 72°
2026-04-20 22:10 33.53840 73.05167 15779 ft 370 kts 70°
2026-04-20 22:10 33.54960 73.07926 16406 ft 370 kts 52°
2026-04-20 22:10 33.56697 73.10180 17058 ft 369 kts 36°
2026-04-20 22:10 33.58894 73.11735 17721 ft 367 kts 19°
2026-04-20 22:11 33.61365 73.12474 18343 ft 367 kts
2026-04-20 22:11 33.63918 73.12468 18898 ft 368 kts 356°
2026-04-20 22:11 33.66491 73.12347 19468 ft 372 kts 356°
2026-04-20 22:11 33.69086 73.12225 20027 ft 375 kts 356°
2026-04-20 22:12 33.71705 73.12108 20585 ft 378 kts 356°
2026-04-20 22:12 33.74348 73.11992 21140 ft 382 kts 356°
2026-04-20 22:12 33.77015 73.11875 21701 ft 385 kts 356°
2026-04-20 22:12 33.79706 73.11755 22254 ft 389 kts 356°
2026-04-20 22:13 33.82423 73.11636 22809 ft 392 kts 356°
2026-04-20 22:13 33.85164 73.11517 23351 ft 396 kts 356°
2026-04-20 22:13 33.87886 73.11400 23825 ft 399 kts 356°
2026-04-20 22:13 33.90671 73.11276 24294 ft 401 kts 355°
2026-04-20 22:14 33.93469 73.11148 24747 ft 403 kts 355°
2026-04-20 22:14 33.96283 73.11021 25194 ft 405 kts 355°
2026-04-20 22:14 33.99110 73.10896 25658 ft 407 kts 355°
2026-04-20 22:14 34.01949 73.10772 26089 ft 409 kts 355°
2026-04-20 22:15 34.04800 73.10649 26514 ft 411 kts 355°
2026-04-20 22:15 34.07664 73.10523 26855 ft 412 kts 355°
2026-04-20 22:15 34.10530 73.10396 26926 ft 412 kts 355°
2026-04-20 22:15 34.13395 73.10270 26927 ft 411 kts 355°
2026-04-20 22:16 34.16252 73.10145 26927 ft 411 kts 355°
2026-04-20 22:16 34.19112 73.10021 26933 ft 411 kts 355°
2026-04-20 22:16 34.21974 73.09898 26934 ft 411 kts 355°
2026-04-20 22:16 34.24834 73.09773 26933 ft 411 kts 355°
2026-04-20 22:17 34.27695 73.09647 26948 ft 411 kts 355°
2026-04-20 22:17 34.30555 73.09519 26943 ft 411 kts 355°
2026-04-20 22:17 34.33415 73.09392 26948 ft 411 kts 355°
2026-04-20 22:17 34.36276 73.09266 26946 ft 411 kts 355°
2026-04-20 22:18 34.39136 73.09138 26964 ft 411 kts 355°
2026-04-20 22:18 34.41957 73.09009 26940 ft 411 kts 355°
2026-04-20 22:18 34.44813 73.08879 26942 ft 411 kts 355°
2026-04-20 22:18 34.47672 73.08753 26961 ft 411 kts 355°
2026-04-20 22:19 34.50567 73.08625 26962 ft 411 kts 355°
2026-04-20 22:19 34.53392 73.08582 26955 ft 413 kts
2026-04-20 22:19 34.56244 73.09127 27020 ft 418 kts 12°
2026-04-20 22:19 34.58985 73.10351 27003 ft 423 kts 23°
2026-04-20 22:20 34.61496 73.12223 27004 ft 427 kts 34°
2026-04-20 22:20 34.63710 73.14656 27005 ft 431 kts 41°
2026-04-20 22:20 34.65853 73.17208 27008 ft 431 kts 41°
2026-04-20 22:20 34.67993 73.19752 27017 ft 431 kts 41°
2026-04-20 22:21 34.70139 73.22298 27025 ft 431 kts 41°
2026-04-20 22:21 34.72287 73.24845 27058 ft 431 kts 41°
2026-04-20 22:21 34.74432 73.27391 27057 ft 431 kts 41°
2026-04-20 22:21 34.76576 73.29937 27057 ft 431 kts 41°
2026-04-20 22:22 34.78716 73.32481 27058 ft 431 kts 41°
2026-04-20 22:22 34.80860 73.35033 27077 ft 431 kts 41°
2026-04-20 22:22 34.83002 73.37585 27119 ft 430 kts 41°
2026-04-20 22:22 34.85143 73.40137 27121 ft 431 kts 41°
2026-04-20 22:23 34.87285 73.42692 27116 ft 431 kts 41°
2026-04-20 22:23 34.89428 73.45251 27116 ft 431 kts 41°
2026-04-20 22:23 34.91564 73.47801 27137 ft 431 kts 41°
2026-04-20 22:23 34.93704 73.50358 27137 ft 431 kts 41°
2026-04-20 22:24 34.95844 73.52921 27161 ft 431 kts 41°
2026-04-20 22:24 34.97976 73.55476 27158 ft 431 kts 41°
2026-04-20 22:24 35.00113 73.58040 27157 ft 431 kts 41°
2026-04-20 22:24 35.02249 73.60604 27158 ft 431 kts 41°
2026-04-20 22:25 35.04355 73.63135 27153 ft 430 kts 41°
2026-04-20 22:25 35.06489 73.65702 27160 ft 431 kts 42°
2026-04-20 22:25 35.08625 73.68274 27154 ft 432 kts 42°
2026-04-20 22:25 35.10789 73.70885 27153 ft 432 kts 42°
2026-04-20 22:26 35.12900 73.73428 27150 ft 432 kts 42°
2026-04-20 22:26 35.15036 73.76000 27152 ft 432 kts 42°
2026-04-20 22:26 35.17177 73.78581 27136 ft 432 kts 42°
2026-04-20 22:27 35.21454 73.83747 27128 ft 432 kts 42°
2026-04-20 22:27 35.23593 73.86332 27127 ft 432 kts 42°
2026-04-20 22:27 35.25730 73.88917 27129 ft 432 kts 42°
2026-04-20 22:27 35.27865 73.91502 27126 ft 432 kts 42°
2026-04-20 22:28 35.29998 73.94094 27121 ft 432 kts 42°
2026-04-20 22:28 35.32127 73.96684 27115 ft 432 kts 42°
2026-04-20 22:28 35.34259 73.99276 27122 ft 432 kts 42°
2026-04-20 22:28 35.36392 74.01870 27121 ft 432 kts 42°
2026-04-20 22:29 35.38526 74.04462 27107 ft 432 kts 42°
2026-04-20 22:29 35.40620 74.07115 27108 ft 434 kts 47°
2026-04-20 22:29 35.42393 74.10118 27111 ft 437 kts 57°
2026-04-20 22:29 35.43819 74.13415 27113 ft 438 kts 61°
2026-04-20 22:30 35.45208 74.16738 27115 ft 438 kts 60°
2026-04-20 22:30 35.46603 74.20051 27114 ft 438 kts 60°
2026-04-20 22:30 35.48006 74.23373 27127 ft 438 kts 60°
2026-04-20 22:30 35.49410 74.26694 27126 ft 438 kts 60°
2026-04-20 22:31 35.50813 74.30015 27125 ft 438 kts 60°
2026-04-20 22:31 35.52215 74.33339 27120 ft 438 kts 60°
2026-04-20 22:31 35.53598 74.36631 26987 ft 428 kts 60°
2026-04-20 22:31 35.54937 74.39846 26735 ft 417 kts 60°
2026-04-20 22:32 35.56242 74.42985 26491 ft 408 kts 60°
2026-04-20 22:32 35.57091 74.45022 26322 ft 403 kts 60°
2026-04-20 22:32 35.58333 74.47997 26088 ft 399 kts 60°
2026-04-20 22:32 35.59595 74.51018 25854 ft 396 kts 60°
2026-04-20 22:33 35.60849 74.54026 25615 ft 395 kts 60°
2026-04-20 22:33 35.62100 74.57023 25373 ft 393 kts 61°
2026-04-20 22:33 35.63344 74.60009 25142 ft 392 kts 60°
2026-04-20 22:33 35.64614 74.62952 24904 ft 390 kts 59°
2026-04-20 22:34 35.65927 74.65867 24702 ft 389 kts 58°
2026-04-20 22:34 35.67262 74.68755 24475 ft 388 kts 58°
2026-04-20 22:34 35.68597 74.71631 24245 ft 387 kts 58°
2026-04-20 22:34 35.69812 74.74571 24005 ft 386 kts 67°
2026-04-20 22:35 35.70517 74.77760 23789 ft 388 kts 81°
2026-04-20 22:35 35.70642 74.81071 23559 ft 387 kts 94°
2026-04-20 22:35 35.70202 74.84317 23134 ft 384 kts 106°
2026-04-20 22:35 35.69444 74.87436 22774 ft 378 kts 107°
2026-04-20 22:36 35.68686 74.90531 22309 ft 376 kts 107°
2026-04-20 22:36 35.67935 74.93610 21842 ft 375 kts 107°
2026-04-20 22:36 35.67192 74.96674 21374 ft 374 kts 107°
2026-04-20 22:36 35.66449 74.99735 20909 ft 373 kts 107°
2026-04-20 22:37 35.65710 75.02786 20445 ft 371 kts 107°
2026-04-20 22:37 35.64976 75.05828 19987 ft 371 kts 107°
2026-04-20 22:37 35.64252 75.08828 19843 ft 360 kts 107°
2026-04-20 22:37 35.63556 75.11717 19617 ft 354 kts 107°
2026-04-20 22:38 35.62848 75.14637 19149 ft 353 kts 107°
2026-04-20 22:38 35.62131 75.17585 18296 ft 365 kts 107°
2026-04-20 22:38 35.61422 75.20494 17721 ft 353 kts 107°
2026-04-20 22:38 35.60728 75.23329 17327 ft 342 kts 107°
2026-04-20 22:39 35.60041 75.26126 16895 ft 341 kts 107°
2026-04-20 22:39 35.59350 75.28948 16477 ft 340 kts 107°
2026-04-20 22:39 35.58446 75.31581 16067 ft 339 kts 121°
2026-04-20 22:39 35.56999 75.33810 15852 ft 330 kts 140°
2026-04-20 22:40 35.55195 75.35488 15860 ft 323 kts 145°
2026-04-20 22:40 35.53261 75.36870 15864 ft 321 kts 154°
2026-04-20 22:40 35.51243 75.38047 15865 ft 321 kts 154°
2026-04-20 22:40 35.49235 75.39247 15684 ft 321 kts 154°
2026-04-20 22:41 35.47217 75.40463 15200 ft 325 kts 153°
2026-04-20 22:41 35.45227 75.41871 14714 ft 327 kts 146°
2026-04-20 22:41 35.43384 75.43444 14247 ft 329 kts 145°
2026-04-20 22:41 35.41516 75.45043 13745 ft 323 kts 145°
2026-04-20 22:42 35.39699 75.46598 13227 ft 313 kts 145°
2026-04-20 22:42 35.37934 75.48107 12724 ft 305 kts 145°
2026-04-20 22:42 35.36205 75.49554 12222 ft 297 kts 150°
2026-04-20 22:42 35.34399 75.50705 11768 ft 290 kts 154°
2026-04-20 22:43 35.32602 75.51758 11340 ft 281 kts 155°
2026-04-20 22:43 35.30866 75.52778 10959 ft 272 kts 154°
2026-04-20 22:43 35.29222 75.53840 10581 ft 263 kts 143°
2026-04-20 22:43 35.28097 75.55519 10275 ft 252 kts 112°
2026-04-20 22:44 35.27836 75.57561 10035 ft 239 kts 81°
2026-04-20 22:44 35.28459 75.59347 9827 ft 224 kts 49°
2026-04-20 22:44 35.29717 75.60329 9708 ft 214 kts 12°
2026-04-20 22:44 35.31161 75.60232 9642 ft 207 kts 337°
2026-04-20 22:45 35.32332 75.59409 9566 ft 182 kts 322°
2026-04-20 22:45 35.33249 75.58429 9492 ft 170 kts 314°
2026-04-20 22:45 35.34073 75.57424 9378 ft 164 kts 313°
2026-04-20 22:45 35.34967 75.56552 9253 ft 165 kts 324°
2026-04-20 22:46 35.35971 75.55877 9130 ft 164 kts 329°
2026-04-20 22:46 35.36923 75.55140 9057 ft 161 kts 317°
2026-04-20 22:46 35.37725 75.54206 9030 ft 161 kts 311°
2026-04-20 22:46 35.38530 75.53244 8893 ft 162 kts 317°
2026-04-20 22:47 35.39503 75.52574 8753 ft 162 kts 344°
2026-04-20 22:47 35.40602 75.52318 8833 ft 159 kts 345°
2026-04-20 22:47 35.41548 75.51642 8946 ft 162 kts 302°
2026-04-20 22:47 35.41641 75.50318 8566 ft 167 kts 238°
2026-04-20 22:48 35.40750 75.49541 8323 ft 161 kts 181°
2026-04-20 22:48 35.39663 75.49806 8048 ft 161 kts 159°
2026-04-20 22:48 35.38607 75.50272 8022 ft 162 kts 154°
2026-04-20 22:48 35.37608 75.50933 7980 ft 165 kts 144°
2026-04-20 22:49 35.36665 75.51721 7707 ft 162 kts 147°
2026-04-20 22:49 35.35701 75.52445 7483 ft 162 kts 146°
2026-04-20 22:49 35.34772 75.53183 7340 ft 147 kts 146°
2026-04-20 22:49 35.34147 75.53679 7338 ft 64 kts 147°
2026-04-20 22:50 35.33909 75.53869 7336 ft 36 kts 148°
2026-04-20 22:50 35.33702 75.54029 7337 ft 34 kts 147°
2026-04-20 22:50 35.33507 75.54182 7339 ft 32 kts 147°
2026-04-20 22:50 35.33322 75.54327 7339 ft 27 kts 147°
2026-04-20 22:51 35.33241 75.54340 7339 ft 11 kts 231°
2026-04-20 22:51 35.33202 75.54256 7339 ft 12 kts 237°
2026-04-20 22:51 35.33158 75.54174 7339 ft 12 kts 237°
2026-04-20 22:51 35.33124 75.54109 7339 ft 6 kts 237°
2026-04-20 22:52 35.33098 75.54073 7339 ft 5 kts 201°
2026-04-20 22:52 35.33082 75.54080 7337 ft 1 kts 148°
2026-04-20 22:52 35.33080 75.54083 7336 ft 1 kts 144°
2026-04-20 22:52 35.33069 75.54092 7336 ft 0 kts 146°
2026-04-20 22:53 35.33066 75.54094 7336 ft 0 kts 146°